Weather Roundup
Issued by NWS Chicago, IL

Home | Current Version | Previous Version | Graphics & Text | Print | Product List | Glossary On
Versions: 1 2 3 4 5 6 7 8 9 10 11 12 13 14 15 16 17 18 19 20 21 22 23 24 25 26 27 28 29 30 31 32 33 34 35 36 37 38 39 40 41 42 43 44 45 46 47 48 49 50
975
NZUS59 KLOT 292304
HRRLOT

CHICAGO AREA WEATHER ROUNDUP
NATIONAL WEATHER SERVICE CHICAGO/ROMEOVILLE IL
600 PM CDT FRI JUL 29 2016

NOTE: "FAIR" INDICATES FEW OR NO CLOUDS BELOW 12,000 FEET WITH NO
SIGNIFICANT WEATHER AND/OR OBSTRUCTIONS TO VISIBILITY.

* THESE STATIONS ARE NOT UNDER NWS QUALITY CONTROL. THEY ALSO MAY NOT
  REPORT WEATHER SUCH AS PRECIPITATION OR FOG.

ILZ005-006-012>014-019>023-300000-
NORTHEAST ILLINOIS

CITY           SKY/WX    TMP DP  RH WIND       PRES   REMARKS
OHARE          CLOUDY    73  69  87 NE12      29.93S
MIDWAY         CLOUDY    74  67  78 NE6       29.92S
AURORA         CLOUDY    74  69  85 E8        29.93R
LANSING*       LGT RAIN  70  67  88 E7        29.92F
WAUKEGAN       LGT RAIN  71  67  87 NE10      29.95R
DUPAGE AIRPORT CLOUDY    74  68  81 NE14      29.93S
WHEELING       CLOUDY    73  68  84 NE7       29.95R
KANKAKEE*      CLOUDY    70  66  87 NE9       29.93R
MORRIS*        LGT RAIN  72  69  90 CALM      29.92S
NORTHERLY ISL    N/A     72  66  81 NE7         N/A
$$

WIZ051-052-058>065-066-070>072-300000-
SOUTHEAST WISCONSIN

CITY           SKY/WX    TMP DP  RH WIND       PRES   REMARKS
MILWAUKEE      CLOUDY    72  65  78 NE14G23   29.97S
KENOSHA*       CLOUDY    72  66  81 NE8       29.97R
RACINE*        CLOUDY    71  65  81 N12       29.98S
BURLINGTON     CLOUDY    71  64  76 NE7       29.97S
WAUKESHA       PTSUNNY   72  63  73 E13G18    29.99S
$$

INZ001>003-010>013-019-020-300000-
NORTHWEST INDIANA

CITY           SKY/WX    TMP DP  RH WIND       PRES   REMARKS
GARY*          PTSUNNY   72  70  94 CALM      29.92F
MICHIGAN CITY* NOT AVBL
RENSSELAER*    NOT AVBL
VALPARAISO     CLOUDY    71  65  81 CALM      29.93S
$$

LMZ740>746-300000-
SOUTHERN LAKE MICHIGAN

STATION/POSITION TIME  SKY/WX   TEMP WIND        PRES    VSBY
                                AIR  DIR/SP/G
                 (UTC)          (F)  (DEG/KT/KT) (MB)    (MI)
HARRISON CRIB    2200            73  130/ 13/ 15   N/A
BURNHAM HARBOR   2300            72   30/  6/ 15   N/A
CALUMET HARBOR   2200            70              1013.2R
BURNS HARBOR     2201            72  170/  1/ 16 1013.9R
MICHIGAN CITY    2200            69  120/  4/  5   N/A
$$

ABBREVIATIONS USED IN REMARKS
   TC - TEMPERATURE IN CELSIUS
  WCI - WIND CHILL INDEX
   HX - HEAT INDEX
  VSB - VISIBILITY
$$




USA.gov is the U.S. government's official web portal to all federal, state and local government web resources and services.